Temp
-7 -7 -8 -8 -8 -8 -7 -7 -7 -8 -7 -7 -7 -7 -7 -7 -7 -7 -7 -7 -7 -7 -7 -7 -7 -7 -7 -7 -7 -7 -7 -7 -7 -7 -7 -6 -6 -6 -6 -7 -6 -6 -6
-7 -7 -7 -7 -7 -7 -7 -7 -7 -7 -7 -7 -7 -7 -7 -7 -7 -7 -7 -7 -7 -7 -7 -7 -7 -7 -7 -8 -7 -7 -7 -7 -7 -7 -7 -6 -6 -6 -6 -6 -7 -6 -6
-7 -7 -7 -7 -7 -8 -7 -7 -7 -7 -7 -7 -7 -7 -7 -7 -7 -7 -7 -7 -7 -7 -7 -8 -8 -8 -8 -7 -7 -7 -7 -7 -7 -7 -7 -6 -6 -7 -6 -6 -6 -7 -7
-7 -7 -7 -7 -7 -7 -7 -7 -7 -7 -7 -7 -7 -7 -7 -7 -7 -7 -7 -7 -7 -7 -7 -8 -8 -7 -7 -7 -7 -7 -7 -7 -7 -7 -7 -7 -7 -7 -7 -6 -6 -7 -7
-7 -7 -7 -7 -7 -7 -7 -7 -7 -7 -7 -7 -7 -7 -7 -7 -7 -7 -7 -7 -7 -7 -7 -7 -7 -7 -7 -8 -7 -7 -7 -7 -7 -7 -7 -7 -7 -7 -7 -7 -7 -7 -7
-7 -7 -7 -7 -7 -7 -7 -7 -7 -7 -6 -7 -7 -7 -7 -7 -7 -7 -7 -7 -7 -7 -7 -8 -8 -7 -7 -7 -7 -7 -7 -8 -7 -7 -7 -7 -7 -7 -7 -7 -7 -7 -7
-7 -7 -7 -7 -6 -6 -6 -6 -6 -6 -6 -7 -7 -6 -7 -6 -7 -6 -7 -7 -7 -7 -8 -8 -7 -7 -8 -7 -7 -7 -7 -8 -7 -7 -7 -7 -7 -7 -7 -7 -7 -7 -7
-7 -7 -6 -6 -6 -6 -6 -6 -7 -7 -7 -7 -7 -7 -7 -7 -7 -7 -7 -7 -7 -7 -8 -8 -7 -7 -7 -7 -7 -8 -8 -8 -8 -7 -7 -7 -7 -7 -7 -7 -7 -7 -7
-7 -6 -6 -6 -6 -6 -6 -6 -6 -6 -6 -6 -6 -7 -7 -7 -7 -7 -7 -7 -8 -7 -7 -8 -8 -7 -7 -7 -8 -8 -8 -8 -8 -8 -8 -8 -7 -7 -7 -7 -7 -7 -7
-7 -6 -5 -5 -6 -6 -6 -6 -6 -6 -6 -7 -7 -7 -7 -7 -7 -7 -7 -7 -7 -7 -7 -7 -7 -7 -8 -7 -8 -8 -8 -8 -8 -8 -8 -8 -7 -7 -7 -7 -7 -7 -7
-6 -6 -5 -6 -6 -6 -7 -7 -7 -7 -7 -7 -7 -7 -7 -7 -7 -8 -8 -8 -8 -8 -8 -7 -8 -8 -8 -7 -8 -7 -8 -8 -8 -8 -8 -8 -8 -7 -7 -7 -8 -7 -7
-6 -6 -6 -6 -6 -7 -7 -7 -7 -7 -6 -7 -7 -7 -7 -7 -7 -8 -8 -8 -8 -8 -8 -7 -7 -8 -8 -8 -8 -8 -8 -8 -8 -8 -8 -8 -8 -7 -8 -8 -8 -8 -7
-7 -6 -6 -6 -6 -6 -6 -6 -7 -7 -7 -7 -7 -7 -7 -7 -8 -8 -8 -8 -8 -8 -8 -8 -8 -8 -8 -8 -8 -8 -8 -8 -8 -8 -8 -8 -8 -8 -8 -8 -8 -8 -8
-7 -7 -6 -6 -6 -6 -6 -6 -6 -6 -7 -7 -7 -7 -7 -8 -8 -8 -8 -8 -8 -8 -8 -8 -8 -8 -8 -8 -8 -8 -8 -8 -8 -8 -8 -8 -8 -8 -8 -8 -8 -8 -8
-7 -7 -7 -7 -6 -6 -6 -6 -6 -6 -7 -7 -7 -7 -7 -7 -8 -8 -8 -8 -8 -8 -8 -8 -8 -8 -7 -8 -8 -8 -8 -8 -8 -8 -8 -8 -8 -8 -8 -8 -8 -8 -8
-8 -8 -7 -7 -6 -6 -6 -6 -6 -6 -6 -6 -6 -6 -7 -7 -7 -8 -8 -8 -8 -8 -8 -8 -8 -8 -8 -8 -8 -8 -8 -8 -9 -9 -9 -9 -8 -8 -8 -8 -8 -7 -7
-8 -8 -7 -7 -7 -7 -6 -6 -6 -6 -6 -6 -6 -6 -6 -7 -7 -7 -7 -7 -8 -8 -8 -8 -8 -8 -8 -8 -8 -8 -8 -8 -8 -8 -8 -8 -8 -8 -8 -8 -8 -7 -8
-8 -7 -7 -7 -7 -7 -7 -6 -6 -6 -6 -6 -6 -7 -7 -7 -7 -7 -7 -7 -7 -8 -7 -7 -8 -7 -8 -8 -8 -7 -7 -8 -8 -8 -8 -8 -8 -7 -7 -7 -7 -8 -8
-8 -7 -7 -7 -7 -7 -7 -7 -7 -7 -7 -7 -7 -7 -7 -7 -7 -7 -7 -7 -7 -7 -7 -7 -7 -7 -8 -8 -7 -7 -7 -8 -8 -8 -8 -8 -8 -8 -8 -8 -8 -8 -8
-8 -8 -8 -7 -7 -7 -7 -7 -7 -7 -7 -7 -7 -7 -7 -7 -7 -7 -7 -7 -7 -7 -7 -7 -7 -7 -7 -7 -7 -8 -8 -8 -8 -8 -8 -7 -8 -8 -8 -8 -8 -8 -8
-9 -8 -8 -7 -7 -7 -7 -7 -7 -7 -7 -7 -7 -7 -7 -7 -7 -7 -7 -7 -7 -7 -7 -8 -8 -7 -7 -7 -8 -8 -8 -7 -8 -8 -7 -7 -8 -8 -8 -8 -8 -9 -9
-9 -8 -8 -8 -7 -7 -7 -7 -7 -7 -7 -7 -7 -7 -7 -8 -8 -7 -7 -8 -8 -8 -8 -8 -8 -8 -8 -8 -8 -8 -8 -8 -8 -8 -8 -8 -8 -9 -9 -9 -9 -10 -10
-9 -9 -8 -8 -8 -7 -7 -7 -8 -8 -8 -8 -8 -8 -8 -8 -8 -8 -8 -8 -8 -8 -8 -8 -8 -8 -8 -8 -8 -8 -8 -8 -8 -8 -8 -9 -9 -10 -10 -10 -11 -11 -11
-10 -9 -9 -8 -8 -8 -8 -8 -8 -8 -8 -8 -8 -8 -8 -8 -8 -8 -8 -8 -8 -8 -8 -8 -8 -8 -8 -9 -8 -8 -8 -8 -9 -9 -9 -10 -10 -11 -11 -12 -12 -12 -12
-10 -9 -9 -9 -9 -9 -9 -9 -9 -9 -9 -8 -8 -8 -8 -8 -8 -8 -8 -8 -9 -9 -9 -9 -9 -9 -9 -9 -9 -9 -9 -10 -10 -10 -11 -11 -11 -12 -12 -13 -13 -13 -13
-9 -9 -10 -9 -9 -9 -9 -9 -9 -9 -9 -9 -8 -8 -9 -9 -9 -9 -9 -9 -9 -9 -9 -10 -10 -10 -10 -10 -10 -10 -10 -11 -11 -11 -12 -12 -13 -13 -13 -14 -14 -14 -14
Height
5895 5896 5897 5898 5898 5899 5902 5903 5904 5905 5905 5905 5907 5909 5909 5910 5912 5912 5913 5915 5916 5917 5918 5918 5919 5919 5919 5920 5920 5920 5920 5920 5919 5919 5918 5918 5919 5918 5918 5919 5920 5919 5919
5893 5894 5896 5897 5897 5897 5898 5899 5900 5901 5903 5903 5904 5905 5905 5907 5908 5909 5910 5910 5911 5912 5913 5915 5915 5914 5915 5916 5917 5917 5917 5917 5917 5916 5915 5914 5914 5914 5915 5915 5917 5917 5917
5891 5892 5893 5894 5894 5896 5897 5898 5899 5899 5900 5900 5901 5902 5902 5903 5904 5904 5905 5906 5908 5908 5909 5910 5910 5910 5910 5911 5911 5912 5912 5913 5913 5912 5911 5910 5907 5909 5911 5912 5913 5914 5914
5889 5890 5891 5892 5893 5894 5895 5896 5897 5897 5898 5898 5898 5899 5900 5900 5900 5901 5902 5902 5903 5904 5904 5904 5904 5905 5906 5905 5905 5906 5906 5906 5908 5907 5907 5906 5905 5907 5908 5909 5910 5910 5910
5886 5888 5889 5890 5891 5893 5893 5894 5894 5894 5894 5895 5895 5895 5896 5897 5897 5898 5897 5898 5899 5899 5899 5898 5897 5899 5901 5901 5901 5901 5900 5901 5901 5901 5901 5901 5902 5903 5904 5905 5905 5906 5907
5886 5886 5887 5887 5888 5888 5889 5890 5891 5891 5891 5891 5891 5891 5892 5892 5893 5892 5892 5893 5894 5894 5893 5893 5893 5894 5895 5896 5896 5896 5897 5896 5896 5895 5896 5896 5896 5899 5900 5901 5901 5901 5902
5883 5884 5884 5885 5885 5885 5886 5887 5888 5888 5888 5887 5887 5887 5887 5887 5887 5888 5887 5887 5888 5888 5888 5888 5890 5890 5891 5891 5891 5891 5891 5890 5890 5890 5890 5891 5892 5892 5894 5895 5896 5895 5896
5881 5882 5883 5883 5883 5883 5883 5884 5884 5885 5884 5883 5882 5882 5882 5882 5882 5882 5882 5882 5882 5882 5883 5883 5885 5886 5888 5887 5888 5888 5888 5887 5886 5885 5884 5885 5887 5886 5887 5887 5889 5888 5889
5880 5881 5880 5880 5880 5881 5881 5881 5881 5882 5881 5880 5878 5877 5877 5877 5878 5878 5878 5878 5878 5878 5878 5879 5880 5881 5883 5883 5883 5884 5883 5883 5883 5882 5881 5881 5881 5883 5883 5882 5882 5881 5882
5878 5879 5879 5878 5878 5878 5878 5878 5878 5878 5877 5876 5874 5873 5872 5872 5873 5873 5874 5873 5873 5874 5874 5874 5875 5876 5877 5878 5880 5879 5880 5880 5879 5879 5878 5878 5877 5878 5877 5876 5875 5874 5875
5877 5877 5877 5877 5877 5876 5877 5877 5876 5876 5874 5872 5870 5869 5868 5868 5868 5869 5869 5869 5869 5869 5870 5870 5871 5872 5872 5875 5876 5876 5876 5876 5876 5875 5874 5874 5873 5873 5872 5872 5870 5869 5868
5875 5875 5875 5875 5875 5875 5876 5876 5874 5873 5871 5869 5867 5865 5865 5864 5865 5865 5865 5865 5865 5866 5866 5865 5867 5868 5870 5871 5871 5871 5871 5871 5871 5872 5870 5869 5869 5868 5867 5866 5866 5865 5864
5873 5874 5874 5875 5875 5875 5875 5874 5872 5870 5869 5866 5865 5864 5863 5862 5863 5863 5862 5862 5862 5861 5863 5862 5863 5864 5865 5866 5866 5865 5866 5866 5867 5867 5866 5865 5864 5864 5863 5862 5860 5860 5859
5872 5873 5873 5874 5874 5873 5872 5872 5870 5869 5867 5865 5864 5863 5862 5862 5861 5861 5860 5860 5860 5860 5860 5859 5860 5860 5860 5860 5861 5861 5861 5862 5862 5862 5861 5860 5859 5858 5858 5857 5855 5853 5852
5871 5872 5872 5872 5872 5871 5871 5870 5869 5868 5866 5865 5864 5864 5863 5862 5861 5859 5858 5858 5858 5858 5857 5852 5857 5856 5855 5856 5858 5859 5859 5858 5857 5857 5856 5855 5854 5852 5852 5851 5849 5847 5846
5871 5871 5871 5871 5871 5870 5869 5869 5869 5869 5867 5866 5865 5865 5864 5863 5862 5860 5859 5858 5858 5857 5856 5855 5854 5853 5851 5853 5854 5854 5854 5853 5853 5852 5851 5849 5848 5847 5845 5844 5843 5841 5840
5871 5870 5871 5870 5870 5869 5867 5867 5868 5869 5868 5867 5867 5867 5865 5865 5863 5862 5861 5859 5858 5857 5856 5854 5854 5853 5852 5851 5851 5850 5850 5849 5848 5847 5846 5845 5843 5841 5839 5838 5837 5835 5834
5869 5868 5869 5869 5869 5868 5867 5867 5867 5868 5868 5867 5866 5866 5865 5864 5863 5862 5861 5859 5857 5856 5855 5854 5852 5852 5850 5850 5850 5848 5847 5846 5844 5842 5841 5839 5837 5835 5833 5831 5829 5827 5825
5867 5867 5867 5867 5866 5866 5866 5866 5866 5867 5867 5866 5865 5865 5864 5863 5862 5860 5859 5857 5856 5854 5853 5852 5851 5849 5848 5847 5846 5844 5843 5841 5839 5837 5835 5833 5830 5828 5826 5823 5821 5818 5816
5865 5866 5865 5865 5865 5865 5865 5864 5864 5865 5864 5864 5863 5862 5862 5861 5859 5858 5857 5855 5854 5853 5851 5849 5848 5847 5845 5844 5842 5840 5838 5835 5833 5830 5827 5824 5822 5819 5817 5814 5812 5809 5806
5863 5863 5864 5864 5864 5863 5863 5862 5861 5861 5860 5860 5859 5859 5858 5857 5856 5856 5855 5853 5851 5849 5847 5845 5843 5841 5840 5838 5836 5834 5831 5828 5826 5822 5819 5816 5813 5810 5806 5803 5801 5798 5795
5861 5861 5861 5861 5861 5861 5861 5860 5859 5857 5856 5855 5855 5854 5853 5853 5852 5852 5851 5849 5847 5845 5843 5841 5839 5836 5834 5832 5829 5827 5824 5821 5818 5814 5810 5806 5802 5799 5795 5792 5789 5786 5783
5859 5859 5858 5858 5859 5859 5858 5857 5856 5855 5854 5853 5852 5851 5850 5849 5848 5847 5846 5844 5842 5840 5838 5835 5833 5830 5827 5824 5821 5818 5815 5811 5807 5803 5799 5795 5791 5788 5785 5781 5778 5775 5772
5856 5856 5856 5855 5855 5856 5855 5855 5854 5853 5852 5851 5849 5848 5846 5845 5844 5842 5840 5838 5836 5834 5831 5828 5825 5822 5819 5816 5813 5809 5805 5801 5797 5793 5789 5785 5781 5778 5774 5771 5768 5765 5762
5851 5853 5853 5852 5853 5853 5853 5852 5851 5850 5849 5847 5846 5845 5843 5841 5839 5837 5834 5831 5829 5826 5823 5820 5817 5814 5810 5806 5802 5798 5794 5789 5786 5782 5777 5773 5771 5767 5762 5760 5756 5753 5750
5848 5849 5849 5849 5849 5848 5847 5847 5846 5845 5844 5841 5840 5838 5837 5834 5831 5829 5826 5824 5821 5818 5815 5812 5808 5805 5801 5796 5792 5787 5783 5779 5774 5770 5766 5762 5758 5755 5751 5748 5744 5741 5738
Wind_Speed
10 11 7 7 9 5 10 11 12 12 12 12 13 15 17 17 17 17 18 18 17 17 16 17 19 17 19 18 17 15 14 12 12 11 11 11 12 12 10 9 8 7 6
8 10 7 5 6 4 6 7 11 13 14 14 14 15 16 16 17 18 20 20 20 20 21 21 20 20 22 19 17 19 18 17 15 16 15 15 19 18 14 13 11 10 9
6 7 6 6 4 4 7 8 10 11 13 16 17 17 19 19 19 18 18 19 19 19 19 21 25 23 24 23 22 23 21 20 17 15 15 16 17 21 17 16 15 14 13
9 8 9 8 6 7 8 8 10 14 11 12 15 17 20 21 22 20 19 18 19 21 24 25 27 26 24 25 26 27 25 22 22 19 17 12 10 15 15 15 16 17 17
9 8 8 6 8 7 10 11 12 12 12 14 15 16 17 19 21 24 26 24 22 23 26 30 27 27 22 23 25 27 25 23 21 20 23 19 15 17 18 18 18 17 18
8 6 8 10 10 11 12 12 12 12 12 14 15 16 17 18 20 22 20 21 21 21 22 24 22 23 22 25 26 26 24 23 21 23 23 17 21 21 21 21 21 21 22
8 6 7 7 8 10 11 12 9 10 11 12 14 14 14 16 18 18 20 20 20 20 17 17 20 21 22 19 18 19 19 22 22 23 23 28 24 23 26 26 27 26 28
8 6 5 7 8 9 9 8 9 10 11 12 15 15 15 15 16 18 19 19 20 21 20 19 19 20 21 21 20 17 19 22 21 20 22 18 13 9 12 21 29 31 29
8 6 6 8 7 8 7 7 8 9 11 13 16 17 17 16 15 15 17 19 18 19 19 21 22 22 21 19 19 19 21 21 21 21 18 18 18 18 20 21 24 26 26
8 7 7 9 6 6 5 7 8 11 12 13 15 16 17 18 18 17 17 20 20 18 18 16 20 21 22 21 19 20 21 21 22 21 19 18 16 16 18 21 23 24 30
6 6 6 6 6 7 7 8 9 10 10 12 12 13 14 14 14 15 16 17 18 16 16 16 17 21 19 18 16 18 20 20 21 19 21 20 19 19 20 21 19 21 21
5 4 5 6 5 5 6 7 7 9 11 10 10 10 10 10 11 12 14 17 17 17 17 19 18 18 18 18 17 20 21 23 22 22 24 23 20 22 21 22 23 21 21
3 4 3 4 4 3 3 4 7 7 7 6 4 5 7 8 9 10 13 14 16 13 15 13 15 15 16 17 16 19 21 23 24 23 22 22 22 24 24 25 26 25 23
4 5 5 4 3 1 2 4 5 4 5 3 3 3 3 3 5 7 8 12 13 13 14 17 15 17 22 22 20 18 18 20 22 22 23 23 24 25 26 27 28 28 25
3 5 5 4 3 1 3 3 4 5 4 3 4 6 5 3 3 6 5 8 10 8 11 8 15 15 20 18 20 19 19 21 23 23 23 24 27 29 29 30 30 30 29
4 5 6 4 4 3 3 1 2 6 11 12 10 9 9 9 7 7 8 5 3 5 8 9 9 11 10 19 17 20 20 20 22 23 24 26 26 28 28 29 27 28 27
5 6 7 5 6 5 3 3 5 6 5 6 6 8 8 8 8 8 8 7 7 6 7 8 8 10 10 10 13 15 18 20 21 22 23 24 26 27 28 28 28 28 29
6 5 7 8 8 7 4 5 7 8 5 2 2 4 7 8 9 11 11 11 11 11 11 12 12 13 12 16 15 16 18 21 22 25 26 27 29 31 31 32 34 35 37
8 8 7 7 7 7 7 7 7 8 8 8 7 8 9 11 12 13 13 13 12 12 12 12 12 14 15 16 18 20 22 23 25 27 28 29 31 34 35 36 37 39 41
10 10 9 8 8 8 8 10 10 12 12 13 13 14 15 16 16 15 12 12 13 13 13 15 16 17 18 18 20 21 24 26 28 30 31 33 35 37 39 41 43 44 44
10 12 12 10 9 9 10 10 11 12 14 15 16 17 17 16 14 12 15 16 17 17 18 17 17 18 19 21 23 24 26 28 31 32 34 36 39 41 42 44 45 46 47
11 12 13 11 11 12 12 12 12 13 14 14 14 14 13 12 13 17 18 17 16 17 17 17 19 22 23 25 27 29 32 34 35 36 38 40 42 43 45 46 47 48 48
11 11 10 9 11 13 13 14 13 13 13 13 13 14 15 16 17 16 17 18 20 21 22 23 24 25 27 29 32 34 35 37 39 40 42 43 43 43 44 45 47 48 49
12 9 5 6 7 9 10 11 12 13 14 15 17 18 17 17 17 18 19 21 23 25 26 27 28 30 33 35 37 38 39 40 41 42 43 43 44 43 44 44 45 46 47
13 6 7 8 9 10 12 13 15 17 17 17 17 17 18 19 20 21 23 25 26 28 30 33 35 37 38 38 39 41 42 43 43 43 43 45 43 42 43 41 42 43 43
7 11 11 12 14 14 15 18 18 19 19 20 21 22 24 24 25 26 27 29 31 32 34 34 35 36 38 39 41 42 43 43 43 45 42 43 43 43 42 41 42 42 41
Wind_Direction
266 258 286 266 262 251 239 240 238 237 239 243 245 247 249 250 244 247 249 248 250 261 265 265 262 261 264 270 247 255 263 272 278 280 282 276 264 250 243 247 250 238 233
255 244 253 234 228 239 242 243 236 238 244 245 249 253 254 254 256 258 259 250 250 256 259 262 261 266 264 263 261 254 256 262 264 274 271 281 263 243 234 236 247 249 248
230 221 219 234 217 215 222 233 252 261 256 244 246 255 259 260 259 256 258 258 258 264 270 272 267 261 263 252 248 249 258 256 264 272 278 282 258 225 228 231 241 247 246
219 215 218 225 241 251 250 252 267 262 263 266 259 256 258 259 261 262 261 260 259 260 265 266 269 260 264 255 252 251 256 255 256 261 274 266 242 222 230 236 240 245 248
225 231 235 249 254 255 259 273 287 277 280 274 267 263 263 263 262 263 265 265 269 269 269 272 254 253 256 257 255 262 264 272 272 268 253 252 242 237 240 243 247 247 251
224 242 255 265 269 271 271 277 283 283 281 275 266 264 262 261 257 261 263 264 271 269 272 268 237 245 253 251 254 258 265 274 280 275 271 271 248 245 250 251 250 251 254
227 237 241 277 283 275 271 275 276 276 279 279 276 270 262 255 253 260 266 268 268 268 275 260 245 247 251 252 255 256 266 277 273 274 270 261 276 256 250 253 260 260 262
211 219 252 284 286 274 267 264 276 289 288 287 287 283 274 263 256 260 264 262 264 263 261 255 248 249 252 257 258 263 272 274 280 278 282 283 270 267 265 254 261 256 260
219 235 278 299 283 263 262 278 289 292 292 289 285 281 274 271 265 263 260 258 262 259 271 247 245 243 250 260 267 266 267 272 273 278 292 302 308 302 285 282 277 258 259
226 248 276 297 283 299 306 303 304 302 297 291 286 281 273 267 264 263 258 254 258 258 260 255 253 247 251 260 270 263 260 270 274 282 285 293 292 299 289 288 287 266 259
238 256 280 292 290 295 293 294 300 297 298 299 296 285 275 268 259 252 258 263 264 253 258 256 254 247 256 264 266 258 255 257 263 269 281 285 284 290 287 289 292 266 262
244 249 286 296 283 283 291 291 296 305 315 310 305 288 282 275 266 252 251 256 259 256 252 266 248 247 258 262 261 256 250 256 261 270 277 280 283 280 286 290 292 288 274
230 239 248 243 261 236 266 314 321 324 324 325 319 301 286 271 260 253 251 251 251 260 258 269 239 251 259 258 243 248 254 259 266 269 274 277 280 279 284 284 286 287 284
253 238 218 225 213 215 320 330 345 357 15 28 10 357 319 281 269 271 275 251 247 258 251 259 253 264 265 252 249 260 262 266 270 276 278 278 279 280 280 281 283 282 281
285 245 233 221 228 289 298 316 9 24 27 45 54 36 28 20 354 318 314 254 254 252 270 295 241 283 251 244 251 270 274 280 279 277 278 281 280 281 280 277 284 287 286
280 272 258 253 258 277 285 267 101 97 87 80 73 65 54 40 29 11 15 12 302 298 281 285 274 294 268 249 263 271 276 278 279 279 280 282 284 281 280 283 284 287 287
300 298 283 274 281 291 301 233 195 162 120 88 57 29 22 15 15 7 359 343 329 317 299 283 293 302 294 273 269 276 286 284 286 287 288 289 286 284 284 287 287 287 287
288 283 289 291 292 289 278 251 223 212 207 224 304 333 335 335 333 331 327 322 313 311 311 307 306 307 299 294 292 291 290 291 294 294 292 291 291 291 291 289 288 288 289
274 276 282 287 286 284 261 238 233 229 244 257 273 288 298 305 310 310 308 306 302 302 304 304 307 307 302 299 300 299 299 299 297 297 298 298 296 294 293 292 292 292 291
272 274 277 278 278 275 265 251 253 260 265 275 284 289 297 302 307 307 308 312 310 307 306 305 304 303 302 302 302 302 301 300 300 301 301 300 299 298 297 295 294 294 295
282 267 270 271 273 271 266 260 259 261 268 276 284 290 296 303 305 305 308 306 300 296 298 301 302 301 302 303 302 302 301 300 300 300 299 298 297 294 294 293 293 293 292
274 267 262 266 266 266 272 276 276 278 279 281 281 284 289 291 293 299 302 299 298 299 300 300 300 301 301 300 301 302 303 303 302 301 299 298 297 295 294 293 294 294 295
265 268 264 274 279 274 272 274 277 281 281 281 284 287 288 293 298 299 300 300 301 301 299 299 299 298 298 299 302 303 303 302 301 301 300 298 297 295 296 295 294 294 295
239 250 268 277 285 285 283 287 286 287 289 289 290 289 291 294 294 296 297 299 299 299 297 297 296 295 297 299 301 301 301 299 300 300 299 298 297 297 295 294 294 293 292
211 242 263 270 274 276 278 280 285 290 292 293 294 292 294 296 296 297 299 301 300 299 297 295 295 297 298 299 299 300 300 300 300 300 300 299 299 297 296 295 292 290 289
231 252 264 267 266 266 273 275 277 280 281 280 283 286 290 292 294 296 296 296 297 297 297 297 297 297 297 299 300 300 300 299 300 301 300 300 299 297 295 294 293 292 291